Sultan Azlan Shah Airport
WMKI : now visible

Airfield :











YOU CAN JOIN US ON...

 
LOGIN :

Register | Disclaimer

   EN    FR    IT 

 









Legend :    VFR   Marginal VFR   IFR   Intensive IFR   Very Intensive IFR
Visi :
Ceiling :
>= 8 km
>= 3000ft
5 to 8 km
1000 to 3000 ft
1500m to 5 km
500 to 1000 ft
800 to 1500m
200 to 500 ft
< 800m
< 200 ft
Symbols :   Thunderstorms  Fog  Heavy snow  Heavy precipitations  Wind > 20 kt






- Airport Elevation : 130 ft
- IATA code : IPH


WMKI - Sultan Azlan Shah

CURRENT METAR :
  • 251300Z 04007KT 360V070 8000 SCT027 26/23 Q1011

EXPIRED METARs :
  • 251200Z 03006KT 8000 FEW028 26/23 Q1010
  • 251100Z 01004KT 340V050 9000 SCT028 26/23 Q1009

TAF TAF WMKI
Valid from the 25 at 12:00 until the 26 at 12:00 UTC


251100Z 2512/2612 03005KT 9000 FEW019
TEMPO 2518/2521 7000 FEW007 SCT018
WMFC FIR / Asia



MET'MAP, your aeronautical weather chart ! - Copyright ORBIFLY December 2007 - Disclaimer

ORBIFLY MET'MAP TEAM :

Programming & Development : Alexandra Zaïnal
Concept & original design : Baudouin d'Aumeries
Assistance for programming : Marc-Olivier Méhu
Technical & hardware support : Manuel Goepfert

Contact : metmap@orbifly.com




SOURCES & CREDITS :

   NOAA       Earth
Advisory